Location: *
(43.9905°S, 176.4941°W)
Time: 00:15:31
(UTC+00:00)

Timation 2 Rocket - Pass Details

Date: 08 December 2019
Orbit: 905 x 1076 km, 70.0° (Epoch: 22 January)

Event Time Altitude Azimuth Distance (km) Brightness Sun altitude
Rises 11:26:40 0° 208° (SSW) 3,829 8.2 -23.2°
Reaches altitude 10° 11:29:20 10° 207° (SSW) 2,848 7.3 -23.3°
Maximum altitude 11:36:01 89° 287° (WNW) 1,007 4.0 -23.3°
Enters shadow 11:38:11 45° 24° (NNE) 1,314 4.2 -23.3°
